This demonstration page uses our WeatherBlox Daily Observations layout. Learn more.

Left ArrowRight Arrow

Hourly Observations for November 28, 2022

Temp ( °F °C ) Dew Point ( °F °C ) Humidity (%) Winds ( mph kmh ) Pressure ( in mb ) Visibility ( mi km ) Precip ( " mm )
12:53 am 00:53 Clear 28 -2.2 18 -7.8 65 65 S 9 15 29.82 1010 10 16 0.00 0.00
1:53 am 01:53 Clear 27 -2.8 18 -7.8 68 68 S 8 13 29.81 1009 10 16 0.00 0.00
2:53 am 02:53 Clear 29 -1.7 19 -7.2 66 66 S 7 11 29.79 1009 10 16 0.00 0.00
3:53 am 03:53 Clear 27 -2.8 19 -7.2 72 72 S 6 9 29.79 1009 10 16 0.00 0.00
4:53 am 04:53 Clear 28 -2.2 19 -7.2 68 68 S 8 13 29.76 1008 10 16 0.00 0.00
5:53 am 05:53 Clear 28 -2.2 20 -6.7 71 71 SSW 8 13 29.76 1008 10 16 0.00 0.00
6:53 am 06:53 Clear 27 -2.8 20 -6.7 74 74 S 12 19 29.76 1008 10 16 0.00 0.00
7:53 am 07:53 Sunny 29 -1.7 22 -5.6 75 75 SSW 12 19 29.76 1008 10 16 0.00 0.00
8:53 am 08:53 Sunny 31 -0.6 23 -5 72 72 SSW 9 15 29.76 1008 10 16 0.00 0.00
9:53 am 09:53 Sunny 38 3.3 26 -3.3 62 62 SSW 16 26 29.75 1008 10 16 0.00 0.00
10:53 am 10:53 Sunny 45 7.2 28 -2.2 51 51 SSW 16 26 29.72 1007 10 16 0.00 0.00
11:53 am 11:53 Sunny 48 8.9 29 -1.7 47 47 SSW 10 17 29.70 1006 10 16 0.00 0.00
12:53 pm 12:53 Sunny 52 11.1 30 -1.1 43 43 S 12 19 29.66 1005 10 16 0.00 0.00
1:53 pm 13:53 Sunny 53 11.7 29 -1.7 39 39 S 10 17 29.64 1004 10 16 0.00 0.00
2:53 pm 14:53 Sunny 52 11.1 30 -1.1 43 43 S 13 20 29.61 1003 10 16 0.00 0.00
3:53 pm 15:53 Sunny 50 10 30 -1.1 46 46 SSE 10 17 29.61 1003 10 16 0.00 0.00
4:53 pm 16:53 Sunny 48 8.9 30 -1.1 49 49 SE 5 7 29.62 1003 10 16 0.00 0.00
5:53 pm 17:53 Clear 46 7.8 32 0 58 58 SE 7 11 29.63 1003 10 16 0.00 0.00
6:53 pm 18:53 Clear 45 7.2 32 0 60 60 SSE 9 15 29.64 1004 10 16 0.00 0.00
7:53 pm 19:53 Clear 43 6.1 33 0.6 68 68 ESE 9 15 29.64 1004 10 16 0.00 0.00
8:53 pm 20:53 Clear 42 5.6 34 1.1 73 73 ESE 7 11 29.62 1003 10 16 0.00 0.00
9:53 pm 21:53 Mostly Cloudy 37 2.8 31 -0.6 78 78 NE 8 13 29.61 1003 10 16 0.00 0.00
10:53 pm 22:53 Cloudy 41 5 33 0.6 73 73 NNE 9 15 29.59 1002 10 16 0.00 0.00
11:53 pm 23:53 Cloudy 40 4.4 27 -2.8 59 59 NNE 16 26 29.57 1001 10 16 0.00 0.00

Powered by AerisWeather